{"data":{"norad_id":66689,"intl_designator":"2025-276Z","name":"AC1-003","alt_names":[],"object_type":"PAYLOAD","status":"ACTIVE","operator":null,"country":"UK","launch_date":"2025-11-28","launch_site_code":"AFWTR","launch_vehicle":null,"mission":null,"orbit_class":"UNKNOWN","rcs_meters":null,"size_class":null,"mass_kg":null,"dimensions":null,"purposes":[],"wikipedia_slug":null,"has_3d_model":false,"image_url":null,"decayed_at":null,"tle_current":{"epoch":"2026-09-20T22:35:36.097728Z","epoch_age_seconds":82838,"freshness":"FRESH","line1":"1 66689U 25276Z   26263.94139002  .00001306  00000+0  66442-4 0  9999","line2":"2 66689  97.4121 335.3959 0003997  58.4397 301.7227 15.18567360 44936","mean_motion":15.1856736,"eccentricity":0.0003997,"inclination_deg":97.4121,"raan_deg":335.3959,"arg_perigee_deg":58.4397,"mean_anomaly_deg":301.7227,"bstar":6.6442e-5,"rev_number":4493,"period_min":94.826218311448,"perigee_km":507.41631128461,"apogee_km":512.9228235546,"semimajor_km":6888.3065674196,"source":"CELESTRAK","updated_at":"2026-09-21T09:00:16.125865Z"}}}